Theta_e
326 329 330 331 332 330 326 325 323 324 325 321 319 319 327 338 327 325 346 349 334 337 344 344 348 348 345 344 348 355 357 361 363 357 353 352 350 354 355 350 357 364 363 368 372 372 368 365 365 368 367 366 366 365 365 365 367 369 370 369 369 368 367 365 364 363 361 361 360 359 359 357 357 356 355 355 354 355 356 357 356 357 358 360 361 361 361
325 327 330 331 330 330 330 330 328 327 326 323 321 323 330 336 332 339 357 352 340 340 340 339 345 347 343 344 348 351 352 355 357 354 352 350 354 362 358 352 356 361 362 367 371 372 371 366 365 368 368 367 367 366 366 366 366 368 369 370 369 368 368 367 365 363 362 361 360 360 359 358 357 356 356 355 355 355 355 356 356 356 356 357 360 361 361
325 327 330 330 330 329 327 328 333 331 329 326 323 322 327 333 331 334 347 346 340 337 340 345 347 347 344 344 344 345 348 351 348 349 352 354 362 369 367 364 369 372 373 374 374 375 373 367 365 367 367 368 367 367 368 367 367 368 368 370 370 368 368 368 366 365 363 362 361 360 360 360 359 358 357 357 356 356 356 356 357 356 356 356 357 360 361
326 325 328 330 329 329 326 325 330 331 328 327 324 323 324 331 331 329 333 335 338 341 344 347 348 347 345 345 348 348 349 350 348 349 354 360 365 368 373 379 384 385 385 383 380 376 370 365 365 365 367 369 368 368 369 368 368 368 367 369 370 368 368 368 368 367 364 362 362 360 360 360 360 359 359 358 357 356 356 358 359 358 357 356 357 359 361
326 324 326 330 329 327 328 329 329 331 332 331 328 325 327 332 333 330 332 340 349 348 343 341 345 346 345 346 346 349 353 355 351 347 351 357 360 364 373 379 382 382 384 385 382 377 370 366 366 366 367 368 368 368 368 368 369 368 368 369 369 369 369 369 368 368 365 364 363 362 360 360 360 360 359 358 358 357 357 358 359 360 360 359 358 358 360
324 321 324 334 333 328 331 335 332 332 333 331 330 327 327 331 333 335 344 354 356 349 342 344 346 345 345 346 345 349 355 354 347 344 348 353 359 367 372 372 374 375 379 384 380 372 369 369 367 367 366 367 369 369 367 369 369 368 368 369 369 370 368 368 369 368 368 366 364 363 363 361 360 361 360 359 358 358 358 357 358 361 362 362 360 359 360
323 323 329 335 332 329 334 335 333 334 332 331 334 334 333 330 329 334 343 347 349 348 346 347 348 345 344 348 347 345 349 353 353 352 351 348 353 366 371 374 380 382 381 384 378 369 368 369 368 367 366 366 366 368 367 368 368 368 368 367 369 370 369 368 369 369 368 368 366 365 364 363 362 361 361 361 359 358 359 358 357 359 361 362 362 361 360
325 333 340 337 329 328 334 332 331 335 335 334 337 334 335 338 337 336 341 342 343 346 342 343 346 343 341 344 344 340 347 357 360 361 363 360 357 367 376 383 388 384 376 375 372 365 363 365 366 365 364 364 365 366 365 366 367 367 368 367 368 370 370 369 369 369 369 369 367 367 366 365 364 362 362 362 360 359 359 358 358 358 359 361 363 363 363
324 329 334 332 325 327 332 332 332 334 334 335 336 334 337 343 345 343 342 342 339 339 339 341 343 339 337 341 345 348 355 361 361 361 365 366 364 366 369 372 375 373 367 365 363 360 357 359 361 362 363 362 364 364 365 366 367 367 367 366 367 369 371 371 370 371 370 370 368 368 367 367 366 365 363 364 362 360 359 358 359 359 358 359 361 362 364
321 322 326 327 323 325 331 333 333 331 330 332 337 340 341 343 345 346 344 341 342 339 338 340 340 341 344 349 354 359 363 363 361 361 363 361 361 362 362 363 365 365 363 362 360 360 358 357 357 358 361 362 363 365 366 365 366 367 367 366 365 367 371 371 371 371 371 371 370 369 369 369 368 366 366 364 363 363 361 359 359 359 359 359 359 360 363
317 321 326 327 325 328 334 334 331 330 332 333 339 345 343 341 342 346 346 344 347 348 346 345 343 347 354 359 359 359 362 363 363 363 363 360 359 358 360 363 362 361 362 363 362 362 361 360 360 359 359 361 363 365 365 365 366 366 367 366 364 365 368 371 372 373 372 372 371 371 370 370 369 369 367 366 366 365 363 361 359 359 360 360 361 361 361
319 323 325 324 325 329 332 332 332 333 332 332 343 347 345 340 341 345 346 345 345 347 348 349 349 352 358 361 356 353 356 361 361 362 362 361 359 357 359 363 362 360 362 366 367 368 367 365 366 366 364 364 364 366 366 365 365 365 366 366 365 364 365 368 371 372 372 372 372 372 372 371 370 371 369 368 367 367 366 364 362 361 361 361 362 362 362
319 323 324 323 326 329 330 330 332 335 335 340 349 349 347 340 340 345 345 344 344 343 344 347 349 351 352 351 350 349 353 358 360 360 359 358 358 356 356 360 361 359 361 363 366 368 368 368 369 369 368 367 366 367 368 367 365 364 363 365 365 365 364 367 370 372 373 374 373 373 373 372 371 371 371 370 370 370 369 368 365 364 363 364 364 364 364
316 321 322 322 326 329 328 328 328 333 342 348 348 349 344 336 340 344 342 342 343 342 342 344 346 346 344 343 346 347 350 354 358 360 358 357 357 356 354 355 358 358 360 364 365 366 367 367 367 368 368 367 368 369 370 369 367 364 362 363 364 365 365 366 369 372 372 374 374 373 374 373 373 373 372 372 371 371 371 370 369 367 366 365 366 367 367
317 319 321 326 332 330 325 327 330 334 341 342 342 342 339 335 338 340 339 341 341 342 344 345 345 345 345 343 345 345 347 351 355 358 359 359 357 357 355 355 356 357 359 362 364 366 366 365 365 367 369 369 368 369 370 370 368 365 364 362 363 365 365 366 369 371 372 373 374 374 373 373 374 374 374 373 372 371 372 371 370 369 368 366 366 366 368
317 320 322 330 336 331 323 325 330 331 334 336 336 336 335 334 334 335 337 336 337 339 344 345 345 346 346 344 346 348 349 350 352 356 358 358 357 356 356 357 358 358 359 361 362 363 366 365 363 367 370 369 367 369 370 368 368 367 366 364 365 366 365 366 368 371 372 373 374 374 374 374 373 374 375 374 373 372 371 371 371 370 369 368 367 366 366
319 321 323 326 329 326 321 323 326 325 327 330 330 331 331 331 331 333 334 334 333 336 341 343 345 345 345 346 347 348 349 351 352 355 356 356 356 356 356 359 360 360 360 362 362 363 363 363 364 367 370 370 369 369 369 368 369 369 367 367 367 366 366 367 369 371 372 373 374 374 374 373 374 374 374 374 373 372 372 371 371 371 370 369 368 367 366
320 321 322 325 326 324 321 321 323 322 322 325 327 329 329 329 329 330 330 331 331 334 336 340 342 344 345 346 346 347 348 350 351 354 357 358 356 356 358 360 360 359 360 362 363 364 362 361 363 366 367 367 370 371 370 369 368 366 368 370 370 367 367 367 369 371 373 373 374 374 373 373 373 374 374 374 372 372 372 372 371 372 371 371 370 369 368
321 320 322 326 327 324 322 323 323 321 321 324 326 327 328 329 328 327 328 329 330 331 334 337 339 341 344 346 346 346 348 349 350 353 358 359 358 357 359 360 360 359 361 361 362 362 361 360 361 363 363 364 366 368 368 369 367 365 367 370 371 369 369 369 369 372 374 374 374 374 373 374 374 374 373 373 372 373 372 372 372 372 372 371 371 371 370
320 320 320 321 322 321 322 324 324 322 325 327 326 325 327 328 326 326 326 328 328 329 332 334 336 339 342 344 346 347 348 350 351 354 357 359 359 357 358 358 359 359 360 360 360 360 360 360 360 362 364 364 365 366 367 368 369 369 370 371 372 372 370 370 371 372 372 373 374 373 372 373 372 373 374 373 372 372 373 372 372 372 372 372 372 371 371
318 317 319 321 322 321 321 323 323 322 325 326 325 325 326 325 326 325 325 326 328 329 329 330 334 338 341 342 345 347 348 349 353 357 357 356 355 357 358 357 357 358 358 358 359 358 357 358 358 360 362 363 365 368 368 367 370 371 372 372 372 371 370 370 371 370 371 372 373 371 368 366 365 365 369 371 371 371 371 372 372 371 371 371 369 368 368
317 318 321 323 324 324 323 323 321 322 324 324 325 327 325 324 326 326 325 326 328 329 328 327 330 337 341 342 343 347 349 351 354 358 357 352 352 355 357 356 356 357 356 356 356 356 355 355 355 357 358 360 363 367 369 371 371 370 370 372 372 371 371 370 370 370 370 370 368 365 363 360 357 355 357 362 366 366 368 371 370 370 371 368 365 365 363
317 318 319 320 322 323 322 322 322 324 325 325 326 326 325 325 325 325 327 330 331 330 329 328 330 334 339 340 341 346 350 349 349 350 351 351 353 355 356 356 357 356 354 355 355 355 355 354 354 355 356 358 359 363 368 372 371 369 369 370 371 373 372 371 370 372 370 365 361 358 357 357 355 350 346 347 352 355 358 363 365 366 363 358 356 358 355
317 317 317 318 319 320 319 319 321 323 323 324 325 324 324 325 326 326 328 330 330 329 330 331 331 333 336 339 341 346 348 347 344 345 348 350 351 353 355 356 355 354 354 354 354 354 354 354 354 355 356 356 356 359 363 368 370 369 369 366 365 366 369 370 371 371 367 359 354 351 350 350 350 347 340 335 336 339 342 345 348 348 346 343 342 342 342
315 316 316 316 317 318 318 318 319 320 322 324 324 323 323 324 326 326 326 326 328 328 330 332 333 334 337 340 341 343 344 344 343 345 348 348 350 352 354 354 354 354 353 353 354 354 354 353 353 353 354 354 354 356 359 361 362 362 362 361 359 358 360 363 365 365 362 356 350 347 345 343 342 341 337 333 332 334 335 334 334 334 334 334 334 332 331
313 313 313 313 314 315 317 317 317 319 321 324 324 323 322 323 324 324 323 323 325 327 328 331 333 334 337 340 341 341 343 343 343 344 346 346 348 351 353 352 353 353 353 352 353 353 353 352 352 353 353 353 352 353 354 356 356 356 356 356 355 354 354 355 357 357 357 354 350 346 344 341 339 337 335 333 333 335 335 336 336 335 335 334 333 333 332
311 311 312 313 313 315 317 317 318 319 320 321 322 322 320 319 321 322 322 323 324 325 326 328 331 334 337 339 340 341 343 343 343 343 343 344 346 349 351 351 351 351 351 351 351 351 352 352 350 350 352 352 350 350 351 352 352 353 353 353 353 353 351 351 350 351 352 352 350 348 344 342 340 337 335 334 335 337 339 339 338 338 338 337 335 334 333
310 310 311 312 313 314 316 318 319 322 322 321 321 322 320 319 321 322 323 324 324 325 327 328 331 335 337 338 339 341 342 343 344 343 343 345 347 349 349 350 350 350 350 349 349 350 349 347 346 347 349 350 349 348 348 348 348 349 350 350 350 350 349 348 347 347 348 348 348 347 345 343 341 340 339 339 340 342 343 343 340 339 339 339 338 335 333
310 310 311 311 312 313 315 316 318 321 322 321 321 321 321 321 322 323 324 324 325 326 327 328 331 335 337 337 338 341 342 344 343 342 343 346 348 348 348 348 348 348 348 348 348 347 347 346 344 345 347 349 349 348 347 347 347 346 345 346 347 347 346 345 346 346 346 345 344 343 343 344 344 342 342 342 345 346 347 345 342 341 341 340 338 335 334
312 311 311 312 312 313 314 315 316 319 321 321 321 321 320 321 322 323 323 324 325 326 327 329 333 335 335 335 336 338 340 342 342 342 344 345 346 346 347 347 347 346 344 344 344 344 344 344 343 344 346 348 348 348 347 346 345 344 344 344 345 345 344 344 344 344 344 343 343 343 343 343 343 343 342 341 342 344 345 344 343 343 342 340 337 336 335
317 314 313 313 313 313 314 316 317 319 320 321 321 320 320 320 322 323 324 324 326 328 330 332 334 334 333 332 333 334 336 338 341 342 343 343 342 342 343 344 342 341 340 340 340 341 340 340 340 341 344 346 345 345 346 345 344 343 344 344 345 345 344 345 345 344 343 342 342 342 341 342 343 342 342 342 341 341 342 342 343 342 340 338 336 335 335
318 315 314 314 314 314 315 316 318 319 321 321 320 320 320 321 322 323 324 326 329 331 331 332 332 331 329 328 327 327 329 332 334 336 337 337 338 339 338 338 338 338 338 338 338 338 338 338 337 339 342 343 343 343 343 343 343 343 343 343 343 343 342 342 342 342 341 341 340 340 340 340 340 340 341 340 340 340 339 340 341 340 339 337 336 336 335
317 315 315 314 315 315 316 317 318 319 320 321 320 321 321 322 322 324 326 330 332 331 330 328 329 327 325 323 323 323 324 326 327 328 329 330 331 333 333 334 334 334 334 335 336 337 336 336 336 338 341 343 344 343 342 343 342 342 342 342 342 341 341 341 341 340 340 339 340 340 340 340 339 339 339 339 338 339 338 338 339 339 338 337 336 335 335
318 318 317 316 316 317 317 318 319 320 320 321 321 321 321 323 325 327 330 332 332 329 326 325 325 324 322 321 321 320 321 322 323 323 323 323 324 325 326 328 328 329 328 330 333 334 335 334 334 336 338 340 341 341 341 341 341 341 340 340 339 337 337 338 338 338 338 338 338 337 336 336 336 335 335 336 336 336 336 336 337 338 338 337 336 336 336
319 319 319 319 319 319 319 319 320 320 320 320 320 321 323 327 330 330 330 330 328 324 323 322 321 320 320 319 319 318 318 318 319 319 318 318 319 319 320 322 323 324 324 325 327 331 333 333 332 333 334 335 336 337 337 337 337 337 335 334 334 333 332 332 332 332 332 333 332 331 331 330 330 330 330 330 331 331 332 332 333 334 334 334 335 335 335
317 318 319 319 319 320 320 320 320 321 321 322 324 326 329 330 329 327 326 325 323 320 319 319 318 318 318 318 317 317 316 316 315 315 315 315 315 316 316 317 319 321 322 322 324 327 330 330 330 330 331 332 333 333 333 333 332 331 331 330 329 328 328 328 327 327 327 327 327 326 326 325 325 324 325 325 324 325 326 326 327 328 328 328 328 329 330
314 315 316 317 317 318 319 319 319 322 323 323 324 326 327 325 322 321 320 320 319 318 317 317 317 316 317 316 316 315 315 314 314 314 314 313 313 314 314 314 316 318 319 320 321 324 326 327 327 327 329 330 330 330 330 329 329 328 327 327 326 325 325 324 324 323 323 322 322 321 321 321 320 320 320 320 320 320 320 320 320 320 320 320 321 322 322
311 313 314 314 315 316 317 317 317 319 320 318 318 320 319 318 318 317 316 316 316 315 315 315 315 315 315 315 315 315 315 314 314 313 313 313 312 312 313 313 314 315 317 317 319 321 322 323 324 325 326 326 327 327 327 326 325 324 324 324 323 323 322 321 321 320 319 318 318 318 317 317 317 317 316 316 316 316 315 315 315 315 314 314 315 315 316
310 311 312 312 313 314 315 315 315 317 317 316 316 316 315 314 314 314 314 314 313 313 312 312 312 312 313 313 313 314 314 313 313 313 312 312 312 312 312 312 312 313 314 314 315 317 318 319 321 322 322 322 323 324 324 324 323 322 321 320 320 320 319 319 319 318 317 316 316 316 315 315 315 314 314 314 313 313 312 312 311 311 310 310 310 310 311
310 310 311 311 312 313 313 313 314 315 316 316 316 315 314 313 312 312 312 312 311 311 310 310 310 311 311 311 312 312 312 312 312 312 312 311 311 312 311 311 311 312 312 312 313 313 314 315 316 318 320 320 320 320 321 321 320 319 318 318 317 317 317 317 316 316 315 315 315 314 313 313 313 312 312 311 311 311 310 310 309 308 308 307 307 307 308
310 310 310 310 311 311 312 312 312 313 314 315 315 315 315 314 314 313 313 312 312 311 310 309 309 309 309 310 310 310 311 311 311 311 311 311 311 312 312 311 311 311 311 311 311 311 312 312 313 314 316 317 318 318 318 317 317 317 316 316 315 315 315 314 314 313 313 313 313 312 312 311 311 310 310 309 309 309 308 308 307 307 306 306 305 305 305
310 310 309 309 309 310 310 311 312 312 312 313 313 314 315 315 315 315 315 314 313 313 312 311 310 310 309 309 309 309 309 310 310 310 311 311 311 311 312 311 311 310 309 309 310 310 310 310 311 312 312 313 315 315 315 315 315 316 315 314 314 313 313 312 312 311 311 310 310 310 309 309 309 309 308 308 307 307 307 306 306 306 305 305 304 304 304
311 311 311 310 310 309 310 310 311 312 312 312 312 312 313 313 314 315 314 314 313 313 312 312 312 311 311 310 310 310 309 309 310 310 310 310 310 310 310 311 310 309 308 308 308 309 309 309 309 309 310 309 310 311 312 312 313 313 314 313 313 312 311 311 310 310 309 309 308 308 308 307 307 307 307 306 306 306 305 305 305 304 304 304 303 303 303
313 312 312 312 311 311 311 311 311 312 312 312 311 311 311 311 312 313 313 313 313 313 312 312 312 312 312 312 312 312 311 310 310 309 310 310 310 309 309 309 310 309 308 307 307 307 308 308 308 308 307 307 307 308 308 309 309 310 310 311 311 312 311 311 310 309 308 307 307 306 306 306 306 306 306 305 305 305 304 304 304 303 303 303 302 302 301
314 313 313 313 313 313 312 312 313 312 312 311 311 311 310 311 311 311 311 312 312 312 312 312 312 312 312 312 312 312 312 311 311 310 310 310 310 309 309 308 308 309 309 308 308 307 307 307 307 307 307 306 306 306 306 306 306 307 307 307 308 308 309 310 310 309 308 307 306 305 305 304 304 304 304 304 304 304 303 303 302 302 301 301 300 300 300
314 314 313 313 313 313 313 313 313 312 311 311 311 311 310 309 309 310 310 310 311 311 311 311 311 311 312 312 311 311 311 310 310 310 310 311 310 310 309 309 308 308 308 308 308 308 307 307 306 306 306 306 306 306 306 305 306 305 306 306 306 306 306 307 307 307 308 308 307 306 305 304 303 302 302 302 302 302 301 301 300 300 299 299 298 298 298
313 313 313 313 313 313 312 312 311 312 312 312 312 312 310 308 308 308 307 307 308 309 310 310 310 310 310 310 311 310 310 310 310 310 310 310 310 309 308 308 308 308 308 308 307 307 307 306 306 306 306 306 306 305 305 305 305 305 305 305 305 305 305 305 305 305 305 306 306 306 306 305 304 303 303 302 302 301 301 301 300 300 299 299 298 297 297
312 312 311 311 311 311 311 311 311 311 311 311 311 310 309 308 307 307 306 306 306 306 307 308 309 309 309 309 309 309 309 309 309 309 308 308 309 309 308 308 307 307 307 307 307 306 306 306 305 305 305 305 305 305 305 304 304 304 304 305 305 305 305 304 304 304 304 304 304 304 304 304 304 304 303 303 302 302 302 301 301 301 300 300 300 299 298
311 310 310 310 309 309 309 309 309 310 309 309 308 307 307 306 306 306 306 306 305 305 305 306 307 307 308 308 308 308 308 308 309 308 307 307 308 308 307 307 307 307 306 306 306 306 306 305 305 305 305 304 304 304 304 304 303 303 303 304 304 304 304 304 304 304 304 304 304 304 304 303 303 303 303 303 303 302 302 302 302 301 301 300 300 300 299
310 310 310 309 309 308 309 308 308 308 308 308 308 306 306 305 305 305 305 306 305 304 304 304 305 305 306 306 306 307 307 307 307 307 307 307 307 306 306 305 306 306 305 305 305 305 305 305 305 304 304 304 304 303 303 303 303 302 302 302 303 303 303 303 303 304 304 304 303 303 303 303 303 303 303 303 302 302 302 302 301 301 300 299 299 299 299
309 309 309 308 307 307 307 307 307 306 306 306 307 306 305 304 304 304 304 305 305 305 304 304 303 304 304 305 305 305 306 306 306 305 306 306 306 306 306 305 305 305 304 304 304 304 304 304 304 304 303 303 303 303 302 302 302 302 302 302 302 302 301 301 302 302 303 303 303 303 303 303 303 303 302 302 302 302 301 301 301 300 300 299 298 297 297
307 307 307 307 306 305 305 305 305 305 304 304 305 305 304 303 303 303 303 304 304 304 304 304 303 303 303 303 304 304 304 304 304 304 305 305 305 305 305 305 305 304 304 303 303 303 303 303 303 303 302 302 302 301 301 301 301 301 301 301 301 301 300 300 300 300 301 301 302 302 302 302 302 302 302 302 302 301 301 301 301 300 300 299 298 297 296
Wind_Speed
14 13 13 13 13 8 6 13 16 15 18 22 18 9 9 9 7 5 7 11 10 7 6 6 7 7 7 8 9 8 8 8 9 13 19 18 14 12 14 17 17 18 17 15 15 16 17 21 24 25 27 30 31 31 32 35 35 34 35 37 38 38 38 39 41 42 42 42 43 42 42 42 42 41 40 40 39 38 38 40 40 39 38 38 38 39 39
15 12 10 10 11 10 5 4 11 14 14 21 22 12 8 11 9 7 9 12 9 7 7 7 6 6 7 9 10 8 8 10 11 12 15 15 12 10 12 15 14 15 16 16 16 16 17 19 22 24 26 29 31 31 32 34 35 35 36 37 37 37 38 39 40 40 41 40 41 41 41 41 42 41 40 40 40 40 40 41 41 41 39 38 37 39 39
10 10 9 9 10 10 8 2 3 6 4 10 20 18 10 8 10 9 9 9 6 5 7 6 5 8 9 10 11 10 8 9 11 11 11 11 10 10 11 12 10 11 12 12 13 14 15 19 23 24 25 28 30 31 31 34 36 36 35 36 37 38 38 39 39 39 39 39 39 40 40 40 41 41 41 40 40 40 40 40 41 41 40 39 38 38 38
7 10 11 11 11 11 7 3 3 3 4 2 13 18 12 6 10 11 7 7 5 4 7 8 7 9 11 10 9 9 8 8 9 10 10 11 11 11 10 10 10 10 10 11 12 13 14 18 23 24 24 26 28 29 31 33 35 36 34 34 37 38 38 37 38 38 39 39 39 39 40 40 40 41 41 40 40 40 40 40 39 39 40 41 40 38 38
7 12 15 11 8 9 5 2 3 3 3 5 6 15 15 8 8 9 7 5 6 6 10 10 8 9 11 10 9 9 9 9 9 8 7 9 11 11 10 10 10 10 9 9 10 11 13 17 21 23 24 25 27 30 31 31 33 34 33 32 34 37 37 37 38 38 39 39 39 39 40 40 40 40 40 40 39 39 39 39 38 38 39 40 40 38 37
8 14 15 9 4 3 4 3 2 2 3 5 3 7 14 11 6 6 6 5 5 7 10 10 9 9 9 9 9 9 9 8 8 9 9 8 9 10 10 9 8 9 8 8 9 12 15 18 20 21 23 24 27 30 31 31 32 34 33 31 31 34 36 36 38 38 38 38 39 39 39 39 38 38 39 40 39 38 38 37 37 37 38 39 39 39 38
6 10 8 4 2 4 5 5 3 4 4 4 6 5 0 4 5 5 9 10 7 8 10 9 9 10 11 10 10 10 10 9 8 9 8 8 8 7 8 8 6 6 7 6 6 9 13 16 17 17 19 21 24 27 29 30 32 33 34 32 29 31 34 35 36 38 38 38 38 38 37 38 38 37 38 38 39 38 37 37 38 38 38 38 39 40 41
4 5 3 0 2 6 7 6 6 6 5 3 5 7 11 14 10 1 9 12 9 10 11 10 8 10 13 11 9 11 13 13 12 11 10 10 10 7 7 8 7 7 9 10 8 7 8 12 16 17 19 20 20 22 26 28 30 31 32 31 29 29 32 34 35 37 38 37 37 36 36 36 36 37 37 37 38 37 36 36 37 37 37 38 39 40 41
3 5 4 2 3 6 6 5 4 3 2 5 5 4 11 22 20 10 2 11 13 12 12 11 9 11 13 10 8 12 15 14 14 14 14 14 15 13 11 10 10 11 14 14 12 10 7 5 8 11 16 20 21 21 22 24 26 28 29 30 29 28 30 34 35 36 37 37 36 35 35 35 35 36 36 36 36 36 36 34 34 35 37 38 39 39 39
4 5 5 4 2 1 4 6 7 6 4 6 6 6 11 18 22 18 10 8 11 11 11 11 10 11 12 9 7 10 14 14 13 14 14 14 13 12 11 11 13 15 15 14 12 10 7 4 1 1 5 13 20 22 22 22 23 24 25 28 29 28 29 33 35 35 36 36 35 35 35 35 34 34 34 35 35 35 36 35 35 35 37 37 37 38 38
5 4 3 4 2 1 7 12 12 10 7 5 6 8 10 14 19 19 17 15 14 12 11 10 9 10 10 7 5 7 11 13 12 12 13 12 11 11 11 11 11 12 11 10 9 8 6 4 5 5 4 4 11 18 22 23 22 22 24 27 29 29 28 30 33 34 35 35 35 35 35 34 33 33 33 33 33 34 35 35 34 34 34 34 35 36 37
5 4 3 4 2 4 12 15 15 13 8 5 8 7 6 13 16 15 17 19 18 15 13 12 11 9 7 5 4 7 9 12 12 11 11 11 10 10 12 14 14 14 12 9 8 7 6 5 6 6 7 6 6 12 18 20 21 23 27 28 28 28 27 27 30 33 34 34 35 34 34 33 32 32 32 31 31 32 32 33 33 32 31 31 32 34 36
5 4 4 4 1 6 12 14 16 16 9 5 9 4 3 10 11 12 15 16 16 14 13 11 9 7 7 6 7 9 11 12 13 12 12 12 13 14 15 16 18 17 15 13 11 11 10 9 7 7 8 9 8 8 11 16 22 27 29 27 26 27 26 26 29 31 33 33 34 33 33 32 31 30 30 30 30 30 30 30 30 30 30 29 29 31 32
4 4 4 3 1 6 13 11 14 15 8 5 4 1 5 7 9 12 13 13 13 13 12 10 8 8 9 10 11 12 13 12 12 11 10 10 12 14 16 17 17 15 14 13 11 11 11 11 9 9 9 11 11 10 9 15 22 26 24 23 24 26 26 26 27 30 31 31 32 31 31 31 30 29 29 28 28 28 28 28 28 29 29 28 27 26 27
3 4 4 2 1 7 15 12 11 12 7 4 1 3 3 8 12 12 12 13 12 11 10 10 10 10 11 12 12 12 12 11 10 9 9 9 9 10 11 13 14 13 12 11 10 9 9 10 10 10 11 11 11 11 12 15 18 20 22 22 24 26 27 27 27 28 29 30 30 30 29 30 29 28 27 28 27 28 28 27 27 27 28 27 26 23 23
2 3 1 1 3 5 11 11 7 7 6 5 1 3 6 9 10 10 9 11 13 12 10 9 9 10 11 12 12 12 11 10 9 8 8 8 7 8 10 11 13 13 11 11 10 8 6 7 9 11 12 12 11 12 14 13 13 17 21 21 23 26 28 28 27 27 28 28 29 29 29 29 28 27 26 27 27 28 28 27 26 25 25 26 25 23 21
3 3 2 1 3 4 9 9 6 7 8 8 6 7 7 7 8 8 8 10 12 13 11 9 8 9 10 11 11 11 10 9 9 8 8 9 9 10 11 12 13 13 13 14 12 7 5 8 10 11 9 7 10 12 11 9 11 15 16 18 22 25 26 27 26 26 26 27 28 29 28 28 27 26 26 26 26 26 27 26 25 23 23 23 24 23 22
6 5 3 1 1 4 8 7 6 9 10 9 9 8 7 7 8 8 8 10 12 12 12 11 9 9 10 10 10 10 9 9 10 8 7 8 9 10 11 12 13 13 14 14 10 7 10 13 13 13 11 10 9 7 4 7 10 11 11 14 20 23 23 25 25 25 25 25 26 27 27 26 26 26 26 26 25 24 25 25 24 23 22 22 22 22 21
5 5 3 2 4 5 6 6 6 8 8 8 8 7 6 7 8 9 9 10 11 11 12 12 12 11 12 11 10 9 9 10 11 11 9 9 10 11 12 13 13 13 12 10 9 9 12 14 15 15 12 11 12 8 3 3 4 8 8 10 16 20 21 22 23 24 24 23 24 25 24 24 25 25 26 26 25 24 24 24 22 21 21 21 21 20 18
5 7 8 8 6 6 5 4 4 6 6 7 8 7 6 7 8 9 9 10 10 10 11 11 12 12 13 13 11 10 10 10 10 11 10 10 10 11 12 13 12 11 10 9 8 9 12 14 15 15 12 11 12 9 6 5 1 5 9 12 16 18 20 21 22 22 23 22 22 22 21 20 20 21 23 25 24 23 23 22 21 20 19 18 19 19 18
7 8 9 7 5 6 5 4 6 8 7 7 7 7 7 8 9 9 9 9 8 9 10 10 10 10 11 12 11 9 9 9 9 8 9 10 11 11 11 12 12 10 9 9 8 9 11 13 13 13 13 12 11 9 7 6 3 4 8 12 15 17 18 19 20 20 20 20 21 21 19 17 14 12 14 18 20 19 19 19 20 20 18 16 15 15 15
5 5 6 5 4 4 3 5 7 6 6 6 6 6 6 7 7 7 7 7 7 8 8 9 9 8 8 9 10 8 7 7 8 8 8 9 11 11 11 12 12 8 5 6 6 7 9 10 11 12 13 12 11 9 6 4 1 5 8 10 12 14 15 17 18 18 17 19 22 23 22 20 18 15 12 12 15 16 15 15 17 19 18 16 16 17 17
6 8 9 8 6 4 3 4 5 4 4 6 6 5 5 5 4 4 4 5 6 7 7 7 7 7 7 8 9 8 7 7 9 10 10 9 10 11 11 11 9 5 3 4 4 6 5 6 7 10 12 12 11 8 6 4 2 6 8 8 8 9 11 14 16 16 17 20 23 24 23 23 24 23 22 20 18 17 16 15 16 17 17 17 16 17 18
9 11 11 9 7 7 6 6 5 4 4 5 4 4 3 3 3 3 4 5 5 5 6 7 7 7 7 6 7 7 7 7 9 11 12 13 12 12 11 10 8 4 3 2 1 2 1 2 4 6 9 11 11 9 7 5 7 10 12 13 14 13 12 13 14 15 20 23 25 25 25 26 28 29 30 28 26 25 25 23 21 21 20 20 19 18 17
10 11 12 12 12 10 9 7 5 4 5 6 5 3 2 2 4 5 5 4 3 3 5 6 7 8 8 6 5 6 5 6 10 13 13 14 14 11 9 10 9 5 3 3 2 2 2 1 2 3 6 10 11 10 10 11 14 17 19 20 21 20 19 20 20 20 22 24 24 24 24 25 27 29 30 28 26 26 28 29 28 26 24 22 22 21 20
14 13 13 16 16 13 9 7 6 5 5 6 6 4 3 2 4 5 4 2 2 2 3 4 6 8 8 6 5 6 6 6 10 13 12 12 12 10 9 11 10 7 6 5 3 3 3 2 3 4 7 10 11 12 14 16 19 22 23 23 23 22 22 24 24 22 22 23 22 22 22 23 24 25 26 28 29 27 25 26 26 26 26 24 22 20 19
16 14 12 14 15 13 8 7 7 6 6 6 7 8 7 4 4 4 4 3 2 1 2 3 6 7 7 6 7 7 8 8 9 11 11 12 13 12 10 11 11 9 7 5 3 4 3 1 4 6 8 9 10 12 16 18 21 22 22 22 23 22 22 24 24 23 22 23 23 22 21 22 24 25 25 28 28 26 24 22 21 21 22 23 22 19 17
16 14 12 13 13 10 8 8 8 6 5 6 6 7 8 8 7 7 7 6 5 3 2 4 6 5 3 4 6 6 6 6 6 7 10 12 13 13 12 12 10 5 1 2 5 7 8 8 9 9 9 9 8 11 14 16 17 20 20 21 22 23 22 22 23 23 23 25 26 23 21 21 23 24 25 25 24 23 23 22 21 21 21 21 20 18 15
16 15 14 15 14 11 9 10 10 7 5 5 4 4 6 8 9 9 9 10 10 8 6 7 7 3 0 1 2 3 4 5 5 7 11 13 12 10 7 6 2 5 10 11 11 10 10 10 9 9 10 12 13 13 13 14 16 19 21 22 23 24 23 23 24 25 25 26 27 26 24 23 23 23 24 24 24 24 23 22 22 22 21 19 18 17 16
14 15 16 16 14 12 11 11 11 7 5 4 4 2 3 5 7 8 9 10 10 10 11 10 7 4 5 4 3 3 3 5 7 8 9 8 8 7 3 6 9 10 11 13 14 14 14 14 13 10 9 12 15 17 18 19 21 22 23 23 22 21 21 22 23 24 25 26 27 27 26 25 24 24 24 25 26 26 24 22 22 22 21 19 17 17 16
11 13 16 15 13 13 11 10 9 7 5 4 4 3 2 4 5 6 7 8 8 9 11 9 7 6 7 7 9 10 10 9 8 7 6 8 9 9 9 10 9 8 8 12 15 17 18 19 19 15 9 11 15 18 19 22 23 23 22 22 20 19 19 20 20 21 24 27 27 27 26 25 25 25 25 24 24 23 22 21 22 21 20 18 16 15 13
7 11 13 13 12 12 11 8 7 7 5 5 5 3 3 4 4 5 5 6 6 6 6 5 5 5 7 12 15 16 17 15 13 13 15 16 15 15 15 13 11 10 12 15 17 18 19 19 21 20 15 15 17 19 20 21 23 24 22 20 20 19 20 21 22 24 27 27 26 26 25 25 25 25 25 23 22 20 18 18 19 21 20 18 15 13 12
2 6 10 11 10 10 9 8 7 6 6 5 3 3 3 4 5 5 5 4 2 1 2 4 4 6 11 17 18 18 18 16 13 14 17 19 20 20 19 15 13 14 15 15 17 20 21 21 22 24 22 18 16 17 19 19 20 20 20 18 19 19 20 21 24 26 28 27 26 25 24 23 23 23 22 21 20 18 16 14 15 19 20 17 15 14 14
4 1 3 7 8 8 7 7 6 5 4 3 2 3 5 5 4 4 2 1 1 3 6 7 6 10 18 21 20 20 19 13 8 10 17 20 21 23 22 19 16 17 18 19 20 21 22 24 26 28 27 23 19 19 19 19 19 19 20 22 24 25 25 25 27 27 26 26 27 28 28 27 26 25 25 24 23 22 22 22 20 18 16 14 13 13 14
9 9 7 3 3 3 3 4 4 4 4 3 3 5 5 2 1 2 4 6 6 8 13 13 11 14 22 23 19 19 19 13 9 11 20 24 24 25 24 21 18 17 21 26 26 22 21 25 29 31 30 29 27 25 25 26 27 27 28 29 29 29 30 30 31 30 29 28 29 29 29 29 28 28 27 27 26 25 25 25 24 22 19 17 14 14 16
15 13 11 10 10 10 7 4 2 1 2 3 3 2 2 4 6 7 9 10 11 15 20 19 15 17 21 20 17 17 20 18 16 18 23 26 25 25 25 23 20 19 21 26 29 25 21 25 30 33 34 35 34 31 29 31 33 33 32 32 31 31 31 32 32 31 30 30 29 28 27 28 29 28 27 27 27 26 25 24 24 23 23 22 21 20 20
20 16 13 13 13 13 13 13 10 6 4 5 5 6 8 10 12 17 20 17 14 16 21 22 19 17 18 20 21 21 22 22 21 20 22 25 29 29 28 26 25 22 18 19 24 25 23 25 31 35 36 37 37 35 33 33 34 34 33 32 31 30 30 30 29 29 29 28 28 27 27 27 27 26 26 26 25 25 24 24 23 23 22 22 23 22 21
25 22 20 21 17 13 18 23 20 14 14 14 13 12 15 17 20 23 24 22 19 19 21 24 23 21 19 22 24 23 22 22 23 23 22 25 31 33 29 26 25 23 18 18 23 27 27 27 30 34 35 36 36 35 34 34 36 35 33 31 30 29 29 28 28 28 28 28 28 28 28 27 26 24 24 25 25 24 24 23 23 23 23 22 22 23 22
23 22 23 25 22 20 24 28 26 22 22 21 16 15 18 23 24 26 26 26 24 21 20 23 25 23 21 21 22 21 21 22 24 25 24 26 30 32 30 28 28 26 24 27 31 33 31 30 31 33 33 34 35 34 33 34 35 34 32 31 30 29 28 27 27 27 27 27 27 27 26 25 25 24 23 24 24 24 24 24 24 23 23 23 23 23 22
16 17 20 22 22 22 24 24 23 25 28 27 22 18 18 22 27 29 29 27 24 21 21 24 24 21 20 20 20 20 22 24 25 25 25 27 30 30 27 28 31 32 33 37 39 38 36 36 35 33 32 33 35 35 35 35 35 34 32 31 30 30 29 28 28 27 27 26 26 26 25 24 23 23 23 23 23 23 22 22 23 22 22 22 22 22 23
16 19 21 21 21 23 23 21 21 25 29 30 27 23 22 24 27 27 25 23 22 22 23 26 25 22 22 23 23 23 25 27 28 28 29 29 27 21 17 20 28 33 35 38 40 40 40 40 37 34 32 33 34 35 36 37 37 35 33 31 31 30 30 29 29 28 27 26 25 24 23 23 22 22 21 21 21 21 20 20 20 20 20 21 22 23 24
16 19 20 19 20 23 23 21 20 23 27 29 28 27 26 27 26 23 21 21 21 21 23 26 27 25 24 26 26 27 27 27 29 31 32 30 26 20 15 18 27 33 35 37 39 39 40 40 39 37 35 34 34 35 36 37 35 33 32 31 31 31 31 30 30 28 28 28 27 26 24 24 23 22 21 22 22 21 20 20 20 20 21 22 23 24 25
15 16 15 16 19 21 22 21 20 20 21 24 26 27 28 29 27 25 23 22 22 21 22 24 25 24 23 23 23 22 22 23 25 26 27 29 29 28 24 23 27 32 35 37 38 38 38 38 39 39 38 37 36 36 37 35 33 32 30 29 29 29 30 30 30 29 28 27 27 25 25 25 24 23 23 23 23 22 22 22 22 21 21 21 22 23 24
14 14 14 15 17 17 18 19 19 17 17 19 23 25 27 28 28 26 24 23 23 23 22 21 21 22 22 21 20 18 18 19 20 20 20 20 23 26 27 27 27 30 33 35 37 36 36 36 36 37 38 38 37 37 36 34 32 31 30 28 27 26 26 26 26 28 28 28 27 26 25 25 24 24 24 24 23 23 23 24 23 23 22 22 21 21 22
13 14 14 15 15 15 15 15 15 15 17 20 22 24 25 25 26 26 26 25 24 24 23 22 20 19 19 20 21 21 21 21 20 20 17 14 13 18 24 27 27 27 29 31 33 33 32 32 33 34 35 35 36 36 35 34 32 31 30 28 27 27 26 24 24 24 25 26 26 27 27 26 26 25 24 24 23 23 22 22 22 23 23 23 23 22 22
11 13 13 13 13 13 14 15 15 16 18 18 18 20 22 24 23 23 23 23 23 24 24 24 23 21 20 19 19 20 21 23 23 23 22 18 16 19 24 25 25 26 27 28 28 28 28 28 30 30 30 31 32 33 32 31 31 30 29 28 27 27 27 26 25 25 24 23 23 23 24 25 26 26 26 25 24 23 23 23 23 23 24 24 25 25 24
10 11 12 12 12 12 14 15 16 16 15 12 10 13 18 22 22 22 22 22 22 22 22 23 24 24 24 23 20 18 17 18 18 20 22 21 20 21 23 23 24 25 26 26 26 26 26 26 27 27 26 26 27 28 27 26 26 26 26 26 26 26 26 26 26 26 25 24 23 22 22 22 23 24 24 25 24 24 23 23 23 23 23 24 25 26 27
10 11 12 14 15 15 14 14 13 13 12 12 12 13 17 19 19 19 20 22 23 22 21 21 22 22 22 23 22 20 18 16 14 15 18 20 20 20 21 22 22 24 25 26 26 26 26 25 25 25 25 25 25 25 24 24 24 24 24 23 23 23 23 24 24 24 24 24 23 23 23 22 21 20 20 21 22 22 22 22 22 23 23 23 23 24 25
12 12 12 14 15 16 15 14 12 10 11 14 15 16 17 18 18 17 16 17 19 21 21 20 20 20 19 20 20 20 20 18 16 16 18 20 21 22 22 22 22 22 24 26 26 26 26 26 25 25 26 26 26 25 24 23 24 25 25 25 24 23 22 21 21 20 20 21 21 21 21 21 20 19 19 19 20 20 21 21 22 22 22 22 22 22 23
13 12 12 12 13 14 14 13 12 13 14 14 14 15 17 17 16 16 16 16 16 17 19 21 21 20 18 17 18 18 19 19 19 18 19 20 22 23 23 23 23 23 23 23 24 24 24 24 23 23 24 24 24 23 23 22 22 23 25 25 25 25 25 23 22 20 19 19 20 20 20 20 20 21 21 20 20 20 21 22 21 20 20 21 21 22 22
12 11 11 12 14 15 15 14 14 16 17 16 14 15 17 16 14 15 17 17 14 14 15 18 21 22 20 19 18 18 19 19 20 20 20 20 21 21 20 20 21 22 22 22 22 22 21 21 21 21 21 21 21 22 22 22 21 22 23 24 25 25 25 25 25 24 22 21 20 20 20 20 20 20 19 19 18 18 18 19 18 18 19 20 20 21 21
15 15 14 13 14 15 16 17 15 15 15 16 15 14 15 14 13 14 15 15 14 14 14 15 17 20 21 20 19 19 19 18 18 18 18 19 19 19 19 19 20 20 20 19 19 19 20 20 20 20 20 21 21 21 22 23 23 23 23 23 23 23 24 25 25 26 26 25 24 22 22 21 20 19 18 17 16 15 16 16 16 16 16 17 18 19 19
Wind_Direction
301 293 293 298 300 289 203 194 210 208 196 207 217 201 172 158 149 208 200 154 161 208 220 202 194 179 156 141 127 113 107 95 107 147 168 176 176 167 167 170 167 169 173 173 174 178 181 185 185 184 185 187 189 190 192 194 196 196 196 197 199 200 202 204 206 207 208 208 208 208 208 208 207 208 208 207 207 207 207 208 209 210 210 211 211 212 213
300 297 296 296 297 295 288 203 213 223 209 203 209 212 188 167 165 190 175 157 172 188 173 170 166 140 122 120 114 103 98 92 97 128 154 161 155 149 163 169 166 168 174 176 178 178 179 184 185 183 184 186 188 190 191 193 196 197 196 196 198 199 202 204 206 207 207 208 208 208 207 207 207 207 208 207 207 207 208 209 209 210 211 211 212 212 213
303 305 305 297 299 289 278 270 214 243 255 208 203 208 214 177 165 188 174 148 172 186 138 120 99 96 98 104 105 100 99 100 100 109 120 123 119 123 141 151 151 159 168 171 175 177 179 183 184 183 184 185 188 190 192 194 196 197 196 196 196 199 201 203 204 205 206 207 208 208 208 207 207 207 207 207 207 207 208 209 209 209 210 211 212 213 213
317 326 319 296 306 316 298 295 315 315 351 272 203 200 214 198 167 181 169 137 182 200 123 97 85 96 95 89 91 91 87 87 91 103 117 123 121 117 122 129 132 142 154 161 168 175 181 183 183 183 182 183 187 191 193 195 196 197 198 197 197 199 201 201 202 202 204 206 207 208 208 208 207 207 207 207 207 207 208 208 208 208 208 210 212 213 213
312 324 324 314 330 341 317 288 310 300 324 318 234 201 206 204 162 165 174 184 201 172 128 111 93 88 87 83 84 83 76 69 65 73 102 127 131 125 125 131 134 138 145 152 160 166 172 179 184 184 180 180 187 193 194 195 195 197 200 199 198 200 200 199 200 201 202 203 205 207 208 208 208 207 207 207 208 208 208 208 207 207 208 209 210 212 212
308 314 323 336 351 313 275 261 263 285 333 4 357 209 201 199 188 161 157 174 171 134 125 126 115 102 94 87 83 82 83 79 64 60 71 90 104 113 124 132 137 144 148 148 150 156 164 173 182 185 184 183 188 193 195 194 194 196 201 203 201 199 200 199 199 199 200 201 204 206 207 208 208 208 208 208 209 209 208 208 207 207 208 208 209 211 212
296 311 329 351 279 252 269 297 324 327 331 36 39 13 236 206 228 184 148 154 148 107 100 112 117 109 95 79 69 70 73 74 68 61 66 82 96 111 117 107 103 123 132 128 129 144 162 175 180 183 187 190 192 193 193 194 194 196 200 203 203 199 199 200 199 198 199 200 202 204 205 206 207 208 209 209 210 210 209 208 209 209 208 209 210 211 213
297 327 351 121 279 298 305 324 347 340 328 23 46 29 21 12 355 298 155 153 142 108 98 100 101 96 87 73 57 59 64 65 64 56 53 66 75 78 85 83 80 92 98 92 85 97 143 176 185 191 195 196 194 194 194 194 195 197 199 202 204 199 198 199 199 198 199 199 201 202 203 204 206 207 208 209 210 210 210 211 211 211 211 211 211 212 213
338 336 314 286 297 311 318 335 340 322 13 58 80 81 30 14 3 352 111 128 118 108 101 93 85 84 81 66 39 46 59 63 64 62 59 59 61 58 54 53 52 63 76 81 80 76 80 127 171 190 201 201 199 197 196 195 195 197 199 203 204 200 198 199 199 199 199 199 199 201 201 202 205 206 208 209 210 210 210 211 212 212 213 213 214 214 214
335 324 312 303 265 283 338 338 328 330 31 72 92 83 38 10 359 356 13 76 93 97 101 97 89 80 74 63 36 43 59 61 59 64 63 59 61 61 52 46 41 42 51 61 69 70 55 32 23 204 208 206 202 197 197 198 197 197 201 205 207 203 200 199 199 199 199 199 199 199 200 202 204 205 207 209 210 210 210 212 213 214 214 215 216 216 216
303 301 307 296 235 96 346 337 338 339 356 47 72 67 35 354 348 2 20 35 43 54 75 84 83 78 73 65 33 36 59 64 59 61 60 55 56 56 57 61 52 39 42 54 61 64 54 8 320 310 309 246 212 203 201 201 199 201 207 209 209 207 203 200 199 199 199 199 199 199 200 202 203 204 206 208 210 211 211 213 215 216 216 216 217 218 219
269 270 282 285 292 10 343 341 346 334 330 44 67 66 17 335 337 3 25 32 34 40 55 65 68 72 79 78 40 32 56 67 63 58 54 49 43 39 47 55 47 36 37 45 45 41 33 10 338 314 308 299 252 220 213 207 202 207 213 213 211 210 208 203 200 199 200 199 199 199 200 202 203 204 206 207 208 210 211 213 216 217 218 218 219 220 221
261 254 263 268 316 359 340 345 354 340 332 59 69 77 287 310 336 11 26 32 33 32 42 58 63 63 67 66 50 42 49 61 61 57 53 46 37 29 27 31 33 30 23 20 20 18 15 11 357 329 312 299 279 249 227 217 213 214 215 215 212 210 209 205 200 198 199 199 199 200 200 201 202 204 205 206 207 208 210 212 215 217 219 220 221 222 223
264 257 274 281 42 352 335 347 7 2 10 76 73 208 254 309 357 19 23 31 36 31 35 47 52 57 55 49 48 44 44 53 59 58 55 46 38 31 21 18 24 21 9 5 7 3 0 0 352 340 326 307 294 282 250 230 227 223 216 213 212 209 207 205 201 198 198 198 198 198 198 199 201 203 204 206 207 208 209 211 214 216 220 222 223 224 224
252 253 292 329 63 340 342 359 23 26 49 103 218 266 326 8 17 17 15 23 26 27 35 38 38 42 41 41 46 43 39 45 50 53 55 49 41 34 19 12 14 6 355 359 4 355 349 344 335 331 322 309 305 296 273 255 244 229 216 211 210 205 203 203 201 198 197 196 196 195 195 198 200 201 202 204 206 208 209 210 212 215 218 221 223 224 223
250 234 338 45 212 306 354 17 30 35 71 105 70 5 24 22 19 15 12 13 13 18 31 37 37 39 34 34 39 38 34 36 38 45 50 48 43 33 17 11 11 3 351 345 337 330 338 336 328 326 313 294 292 292 281 267 242 217 208 206 203 200 199 200 198 196 195 194 193 193 194 197 199 199 199 201 204 207 208 209 210 213 216 218 221 224 224
293 262 262 258 251 324 12 22 10 17 51 67 49 35 33 24 20 19 10 3 6 12 21 27 36 41 37 32 30 28 28 28 28 32 36 36 36 26 14 11 14 5 347 331 316 304 337 355 349 349 343 313 298 289 268 236 207 197 194 195 195 194 194 195 194 193 191 191 191 192 195 197 198 197 197 199 202 204 205 205 206 208 211 213 216 220 222
319 298 268 220 104 25 16 7 355 6 26 43 48 43 31 18 20 23 13 3 3 7 12 16 22 31 39 38 30 23 23 21 17 19 27 30 28 21 12 8 7 357 342 339 349 10 19 16 10 5 8 8 351 323 234 193 189 187 182 185 190 191 191 191 190 187 186 187 189 191 195 197 197 198 199 200 201 201 201 203 205 205 205 207 211 215 217
313 305 315 16 52 33 9 358 360 1 8 31 49 49 31 16 18 21 15 6 3 5 10 11 8 11 22 28 24 16 16 14 9 9 14 16 16 18 12 0 357 353 344 349 17 27 15 12 9 1 359 3 4 9 60 129 192 203 201 192 188 187 187 186 184 182 183 184 186 188 192 195 197 199 200 199 199 199 200 201 201 201 201 203 204 205 205
297 295 309 325 333 335 335 341 349 346 0 36 44 39 30 28 25 20 14 9 5 5 8 7 4 4 8 12 13 11 8 6 5 3 4 4 3 5 1 352 349 350 347 353 14 24 18 16 10 3 2 2 359 2 19 27 34 198 199 189 179 178 179 179 179 181 182 182 181 182 183 184 188 193 196 197 198 199 200 200 198 196 194 195 196 196 197
296 297 309 324 322 307 315 16 16 359 8 33 36 31 29 30 27 19 10 6 6 6 5 3 1 3 4 0 1 4 3 360 358 355 353 349 344 345 348 341 333 336 353 12 30 36 31 27 18 8 8 10 6 2 1 358 13 143 158 161 162 163 168 173 178 181 181 177 172 167 161 156 156 164 181 189 191 193 196 197 197 195 189 182 181 180 177
280 287 305 336 341 305 322 40 31 10 12 20 20 28 34 33 31 17 359 355 6 9 4 356 353 359 0 351 347 355 359 354 352 348 342 336 333 335 336 327 320 329 4 24 33 42 35 27 22 14 12 17 16 10 7 7 37 149 144 145 154 160 167 174 179 183 180 168 157 153 150 143 134 122 126 153 168 173 178 183 190 194 190 177 169 165 154
287 288 298 317 326 301 318 18 18 10 16 12 9 23 28 25 24 12 355 1 9 3 353 349 349 350 347 340 341 348 352 350 345 338 332 328 328 330 329 319 312 326 357 356 21 47 41 26 23 14 15 26 29 16 12 32 115 158 150 132 125 142 163 172 174 175 167 151 143 143 142 139 132 118 105 104 112 120 130 142 153 161 159 149 144 151 146
296 298 304 314 311 297 310 343 360 3 356 343 340 350 351 339 347 20 33 25 10 352 342 341 338 333 329 328 335 341 345 344 334 323 318 316 312 314 318 309 297 305 329 336 45 69 1 25 50 30 22 31 36 32 33 62 113 135 133 115 97 97 116 129 133 139 141 137 133 133 132 131 130 124 111 101 95 96 102 110 116 120 123 120 117 120 123
295 300 309 312 306 300 303 311 318 320 309 299 295 289 280 308 350 19 34 22 356 346 341 331 326 326 322 318 324 330 330 327 321 317 315 312 308 307 305 295 285 278 268 255 223 234 281 16 75 51 36 36 41 56 74 91 103 109 110 106 99 95 98 101 102 110 122 126 127 127 128 127 128 127 122 115 108 102 100 102 105 106 106 108 109 108 108
287 291 300 301 296 293 291 292 297 305 304 303 307 305 302 351 8 2 350 326 314 331 326 310 309 316 318 318 326 325 319 313 312 310 307 305 306 307 297 287 279 260 245 251 260 277 302 351 26 42 56 55 55 71 90 98 98 97 98 98 97 96 97 97 97 101 112 121 124 125 125 125 125 123 123 122 120 116 110 107 105 104 101 99 99 100 101
279 279 283 286 284 282 279 276 275 279 287 300 313 316 315 334 2 342 311 296 294 294 302 303 301 304 317 333 332 321 320 323 315 303 297 296 299 296 285 275 269 259 250 248 237 236 252 58 73 73 76 75 69 75 90 100 101 99 98 97 96 95 94 95 94 96 104 115 122 126 128 128 126 125 126 126 125 124 122 117 112 108 101 96 92 90 89
265 263 257 254 258 268 287 294 288 284 285 287 295 310 321 334 346 339 330 331 332 334 7 349 328 311 307 319 315 310 318 328 327 314 308 308 309 301 280 264 263 266 271 103 121 135 136 122 104 86 78 80 81 82 89 96 99 97 95 94 95 97 95 94 94 95 98 104 110 118 125 130 131 132 132 131 130 129 127 123 119 114 106 96 90 84 78
247 246 242 239 242 253 277 290 289 288 297 303 304 324 337 337 336 335 336 335 333 336 349 345 334 328 128 317 326 335 324 313 315 318 314 316 324 321 287 238 197 65 60 59 68 90 108 111 104 90 77 77 80 85 88 90 91 92 92 91 93 97 99 98 96 96 97 99 101 104 107 112 119 122 119 115 114 117 121 122 121 118 109 96 85 74 63
232 228 229 229 227 228 242 263 269 265 266 280 280 290 330 328 324 328 332 332 331 332 332 331 337 24 64 60 50 40 343 307 305 311 315 327 349 358 32 107 93 69 53 47 50 58 68 70 69 73 85 92 90 90 92 93 92 92 95 96 97 99 101 102 102 99 96 95 96 98 100 102 106 109 108 104 102 105 114 121 123 118 109 96 81 69 62
222 211 215 218 212 205 216 243 257 247 234 240 254 276 319 310 304 312 318 318 322 324 324 331 355 25 35 36 39 39 30 12 356 359 23 40 45 48 62 79 85 78 67 63 62 62 63 58 50 48 75 113 111 102 99 98 95 95 96 97 99 100 99 100 102 100 96 92 90 89 89 90 91 94 98 98 96 97 102 109 115 116 112 102 89 79 74
208 193 200 207 203 195 200 223 242 240 230 226 232 250 270 266 268 280 285 292 310 325 331 353 24 36 43 49 49 45 39 30 27 39 45 40 38 47 57 66 74 76 74 74 73 70 67 59 49 49 72 107 114 108 105 102 99 100 102 100 100 100 98 95 95 96 94 92 89 86 86 86 87 89 92 95 98 101 102 106 116 121 117 107 98 88 79
169 186 193 195 193 189 193 209 225 228 224 220 224 253 263 251 247 253 263 285 320 7 53 49 53 73 75 67 58 52 47 38 35 46 48 37 31 37 40 43 53 60 60 66 72 73 71 66 59 60 73 91 100 102 107 110 109 108 107 100 93 92 90 88 90 92 90 87 83 81 82 82 82 82 84 85 89 93 88 87 107 122 121 112 101 86 73
28 354 191 182 181 180 187 202 212 210 206 205 235 261 254 249 247 239 216 120 113 126 99 75 70 87 85 77 67 61 55 41 23 48 54 42 33 34 34 30 36 47 49 49 55 64 70 73 71 71 75 80 79 79 88 99 103 101 95 86 80 77 75 75 77 79 78 77 74 72 71 69 66 65 66 66 66 66 61 58 69 89 100 101 97 84 66
26 26 29 57 130 157 189 203 191 174 175 193 234 246 241 226 188 176 140 121 117 107 93 83 80 86 84 78 71 69 65 47 20 46 61 54 42 38 39 32 26 34 41 40 40 47 64 74 76 76 76 75 73 73 75 80 83 83 81 78 74 72 70 70 69 69 68 69 70 68 66 65 62 60 60 59 57 55 54 52 53 56 56 53 57 59 50
31 36 37 37 38 38 34 24 22 100 195 222 232 213 133 103 101 100 98 99 102 99 94 87 78 77 80 79 75 75 75 64 45 46 60 64 55 47 45 38 25 24 34 34 30 34 53 69 75 77 76 74 74 75 77 79 79 77 75 75 73 71 70 69 68 67 66 66 67 66 64 63 61 58 56 56 53 51 49 47 45 45 44 40 39 40 39
28 35 48 50 42 45 53 45 28 26 57 47 40 72 96 98 93 88 83 78 77 84 88 86 78 72 77 81 80 77 76 74 65 55 58 65 63 55 47 38 28 24 26 24 21 28 46 63 70 74 75 74 74 76 78 80 79 77 74 73 71 69 68 67 66 65 64 63 63 63 62 61 59 56 53 52 51 48 46 44 42 40 39 37 35 35 33
24 27 44 51 42 46 62 55 40 44 69 64 46 58 82 88 88 87 83 75 65 66 76 82 80 76 74 76 75 70 67 68 69 62 55 57 61 58 50 39 30 26 23 20 25 35 47 56 64 70 72 73 75 76 77 78 78 76 73 71 69 68 68 67 66 65 64 62 62 62 61 59 57 55 52 51 50 48 46 45 44 42 38 35 34 34 32
23 23 38 47 41 41 53 51 39 43 66 70 55 52 70 79 81 81 77 69 62 62 69 76 77 74 70 68 68 65 61 62 65 64 58 56 58 59 53 42 35 34 35 37 39 42 46 50 57 63 67 70 73 75 74 75 76 74 71 70 69 68 67 67 67 67 66 64 63 63 61 59 56 53 51 49 49 48 46 44 44 43 40 37 35 34 32
25 23 33 42 41 40 45 44 35 38 54 63 57 49 57 70 75 74 71 67 63 62 66 71 72 69 65 64 65 64 61 60 61 63 63 59 57 57 53 42 35 36 43 46 45 44 44 47 52 57 61 66 71 73 73 74 75 74 72 70 70 69 68 67 68 67 66 65 64 62 59 57 56 55 52 50 49 47 46 45 44 43 41 38 37 35 33
33 30 32 38 42 42 43 43 37 35 43 50 50 45 47 59 68 72 75 76 74 69 67 70 72 70 67 66 65 64 63 61 59 59 61 59 56 55 53 43 37 39 46 51 51 49 47 47 48 50 56 63 68 70 71 72 73 73 74 73 72 72 71 70 69 69 67 67 67 65 63 64 63 61 58 56 53 51 49 47 46 45 42 39 37 36 35
46 41 38 39 43 43 41 41 42 40 40 42 43 42 45 51 59 67 74 78 77 74 72 72 74 74 73 72 69 65 63 62 61 60 60 59 58 59 58 50 46 47 51 53 53 53 52 51 49 49 51 57 63 67 70 72 72 73 75 75 74 74 74 72 72 72 72 72 72 71 69 69 69 66 64 61 59 56 54 52 49 45 42 39 38 38 37
54 52 50 49 49 46 41 37 39 44 44 43 42 45 48 50 52 56 61 65 66 68 70 71 72 72 71 72 73 70 67 65 65 65 66 66 64 64 64 59 54 55 57 57 55 54 53 54 55 55 54 55 60 65 69 70 70 71 73 75 76 76 76 76 75 74 74 73 74 73 72 71 70 69 68 67 64 61 59 56 53 49 44 41 40 40 39
55 56 58 58 57 55 49 41 37 38 41 43 45 49 52 53 52 50 50 52 55 57 60 63 67 68 67 66 67 68 68 68 68 69 71 70 65 62 63 63 60 59 60 61 60 58 56 56 60 64 63 62 63 65 66 67 68 69 70 72 74 75 77 80 81 81 79 77 75 74 73 72 71 70 69 68 67 65 62 59 57 54 51 47 44 42 40
50 54 60 63 61 59 55 49 43 41 42 44 46 48 51 53 53 51 49 48 50 51 51 53 56 61 64 67 67 67 66 66 67 68 69 70 66 61 61 63 63 63 63 64 64 63 61 60 63 66 68 68 68 68 67 66 67 68 68 68 69 70 72 75 80 83 85 84 81 78 75 73 72 71 70 69 68 67 66 64 61 59 56 53 49 46 42
42 47 50 54 56 56 56 56 55 52 50 48 46 46 48 50 50 49 49 50 52 53 53 51 51 52 57 62 68 70 68 66 66 67 68 71 74 71 67 65 63 63 64 65 66 65 65 64 65 66 67 68 69 70 69 68 68 68 68 67 67 67 68 70 73 76 80 82 83 84 83 80 77 75 74 73 73 72 71 69 68 65 62 58 55 52 48
42 46 45 45 47 51 56 59 58 54 50 47 43 42 46 50 50 48 46 47 50 54 56 55 52 52 54 56 59 63 66 66 65 65 67 71 76 77 74 70 66 64 64 65 66 66 67 67 66 66 67 67 67 67 67 67 67 68 69 70 71 71 71 72 72 74 76 78 80 81 83 84 83 80 78 77 76 74 72 71 70 67 64 60 57 54 51
45 51 52 51 50 47 46 48 53 55 54 53 50 45 44 46 48 49 50 51 48 47 49 54 54 54 55 57 57 59 64 68 67 64 65 70 76 79 78 73 69 65 62 61 62 65 66 67 66 65 65 66 66 67 66 64 64 64 64 67 71 75 77 78 79 80 81 82 82 82 83 84 84 83 83 83 79 75 73 74 73 68 63 59 56 54 52
45 52 56 56 54 52 47 43 42 46 54 59 58 52 45 43 40 38 44 53 55 48 42 44 49 51 54 57 58 59 64 71 75 75 74 73 73 75 75 73 69 66 64 61 60 60 63 64 64 64 65 65 65 65 65 64 63 61 60 60 62 67 71 75 78 81 84 85 86 86 86 84 80 79 82 85 82 75 72 73 73 68 63 60 57 54 52
43 44 48 50 48 46 46 47 43 36 38 48 58 58 52 45 38 29 30 43 58 59 48 39 38 42 50 57 59 58 62 69 74 76 77 77 77 76 76 73 70 67 66 64 61 60 61 62 62 63 63 63 63 62 62 63 64 62 60 59 59 60 60 61 62 66 73 79 81 79 77 76 73 72 74 78 78 74 71 70 69 67 65 63 60 56 53
55 45 44 51 52 46 43 48 51 46 38 35 45 58 60 53 41 32 29 35 49 63 59 46 38 37 41 49 54 54 58 64 68 68 69 73 76 77 77 75 73 70 68 67 64 62 61 62 62 62 61 62 62 61 60 61 63 66 65 62 60 57 56 55 54 56 61 68 72 72 71 71 70 68 68 69 69 69 69 69 68 69 69 66 62 58 55
49 41 38 42 47 44 37 34 39 48 50 44 43 55 68 67 56 43 37 37 45 59 65 58 48 41 40 42 47 52 56 60 63 65 67 71 74 76 77 79 79 77 74 71 69 68 66 65 63 61 61 62 64 64 62 62 64 67 67 64 61 58 57 57 56 55 56 59 62 64 65 66 66 66 66 65 64 65 68 69 71 75 76 70 61 55 52